SCP
-0 -0 -0 -0 -0 -0 -0 -0 0 0 0 0 0 0 0 0 0 0 0 0 0 0 0 0 0 0 0
-0 -0 -0 -0 -0 -0 -0 -0 -0 0 0 0 0 0 0 -0 -0 0 0 0 0 -0 -0 -0 -0 0 0
0 0 0 0 0 0 -0 -0 0 -0 -0 -0 -0 -0 0 -0 -0 -0 -0 0 0 0 0 0 0 0 0
0 0 0 0 0 0 0 0 0 -0 -0 -0 0 0 0 0 0 -0 -0 0 0 0 0 0 0 0 0
0 0 0 0 0 -0 0 0 0 0 0 -0 0 0 0 0 0 0 0 0 0 0 0 0 0 0 0
0 0 0 0 0 -0 -0 -0 0 0 0 0 0 0 0 0 0 0 0 0 0 0 0 0 0 0 0
0 0 0 0 0 0 0 0 0 0 0 0 0 0 0 0 0 0 0 0 0 0 0 0 0 0 0
0 0 0 0 0 0 0 0 0 0 0 0 0 0 0 0 0 0 0 0 0 0 0 0 0 0 0
0 0 0 0 0 0 0 0 0 0 0 0 0 0 0 0 0 0 0 0 0 0 0 0 0 0 0
0 0 0 0 0 0 0 0 0 0 0 0 0 0 0 0 0 0 0 0 0 0 0 0 0 0 0
0 0 0 0 0 0 0 0 0 0 0 0 0 0 0 0 0 0 0 0 0 0 0 0 0 0 0
0 0 0 0 0 0 0 0 0 0 0 0 0 0 0 0 0 0 0 0 0 0 0 0 0 0 0
0 0 0 0 0 0 0 0 0 0 0 0 0 0 0 0 0 0 0 0 0 0 0 0 0 0 0
0 0 0 0 0 0 0 0 0 0 0 0 0 0 0 0 0 0 0 0 0 0 0 0 0 0 0
0 0 0 0 0 0 0 0 0 0 0 0 0 0 0 0 0 0 0 0 0 0 0 0 0 0 0
0 0 0 0 0 0 0 0 0 0 0 0 0 0 0 0 0 0 0 0 0 0 0 0 0 0 0
Wind_Speed_500mb
11 9 7 6 7 6 4 3 3 5 6 6 5 5 5 5 5 5 4 5 1 5 8 10 13 14 14
10 8 6 4 3 2 2 2 2 3 2 2 2 2 1 3 5 6 6 5 5 6 9 13 15 17 17
13 10 8 6 5 7 7 7 7 7 7 6 5 3 2 2 3 4 5 6 7 8 10 12 14 16 17
9 8 7 4 4 9 8 7 10 12 13 12 10 9 9 8 8 9 10 11 11 11 12 13 12 13 15
8 6 4 4 5 6 7 5 7 12 14 14 14 13 12 12 11 13 14 16 16 15 14 15 15 15 15
11 7 6 5 7 7 9 10 9 9 9 12 17 17 16 14 15 16 17 19 20 20 20 18 18 18 19
13 10 9 10 13 13 15 16 15 14 14 14 10 11 13 17 19 20 20 22 23 24 23 23 21 21 20
19 17 14 16 18 23 25 23 23 21 19 20 19 19 18 18 19 24 25 26 25 25 25 26 26 25 25
25 24 23 21 24 26 30 32 32 31 26 26 27 27 24 26 26 27 28 32 32 30 30 30 31 30 29
30 29 28 28 30 32 33 37 39 39 35 30 28 26 28 31 30 31 32 33 31 33 33 34 35 35 35
34 32 31 34 36 40 43 41 41 42 41 39 35 29 32 32 31 34 34 35 35 34 37 38 36 38 37
40 36 32 35 41 46 48 44 42 42 41 41 39 34 34 28 30 37 39 42 42 36 37 40 39 43 44
46 41 35 37 42 46 43 39 40 41 40 39 39 36 29 30 35 36 37 28 30 33 36 38 37 37 35
52 45 38 41 43 42 38 35 35 34 34 34 34 32 28 31 32 34 27 25 26 23 24 29 26 29 4
53 43 40 45 44 39 35 30 26 26 26 27 29 28 27 30 33 34 32 33 38 29 24 18 8 9 28
51 43 43 43 40 37 32 27 23 22 23 26 30 31 31 30 30 30 27 29 29 29 27 22 24 26 18
Wind_Direction_500mb
156 146 140 136 132 133 137 110 58 48 47 50 57 83 94 88 90 82 52 40 353 278 294 308 315 321 327
183 183 186 191 196 198 222 257 292 318 323 358 28 33 16 21 18 22 20 5 339 319 301 294 297 304 311
201 205 213 218 224 238 244 261 267 268 270 267 274 288 320 328 327 329 331 329 328 317 311 307 299 296 298
190 196 201 220 277 292 269 267 264 265 265 263 264 265 268 278 289 291 295 299 305 310 312 315 321 312 309
185 198 217 261 301 314 333 346 300 279 275 267 259 261 262 267 276 285 290 292 293 297 300 302 304 304 309
200 207 227 269 291 304 294 296 304 313 314 289 266 263 258 264 275 281 285 288 289 290 292 296 300 302 304
229 240 272 298 300 292 287 284 286 289 294 295 297 297 311 275 298 291 293 290 290 290 293 298 298 303 305
247 257 272 286 298 292 284 280 277 277 278 280 277 280 290 298 304 300 299 293 294 292 298 301 304 303 305
257 259 268 280 290 292 290 275 269 270 272 268 272 276 278 277 286 293 291 296 294 297 296 298 298 300 297
257 259 268 270 286 284 288 275 266 263 264 262 267 271 286 278 280 284 288 291 291 293 296 293 295 291 290
252 255 265 270 281 282 285 273 261 258 257 254 255 250 256 267 281 286 293 289 285 286 286 286 291 290 291
249 249 263 275 283 285 286 272 261 257 255 252 250 249 253 271 278 284 285 283 281 279 284 289 288 292 287
245 247 256 277 284 287 283 272 262 256 253 250 247 249 267 272 272 282 287 293 298 288 282 284 282 285 294
242 247 260 278 282 283 277 270 261 255 251 247 243 243 250 268 277 282 277 279 281 280 277 291 307 324 352
241 245 261 276 274 274 269 263 255 250 246 240 237 239 254 261 271 275 273 271 276 280 281 284 288 294 304
238 249 263 270 271 266 256 251 242 238 237 236 236 242 254 270 269 279 277 284 289 289 293 279 275 283 279
Wind_Speed_850mb
11 9 7 6 7 6 4 3 3 5 6 6 5 5 5 5 5 5 4 5 1 5 8 10 13 14 14
10 8 6 4 3 2 2 2 2 3 2 2 2 2 1 3 5 6 6 5 5 6 9 13 15 17 17
13 10 8 6 5 7 7 7 7 7 7 6 5 3 2 2 3 4 5 6 7 8 10 12 14 16 17
9 8 7 4 4 9 8 7 10 12 13 12 10 9 9 8 8 9 10 11 11 11 12 13 12 13 15
8 6 4 4 5 6 7 5 7 12 14 14 14 13 12 12 11 13 14 16 16 15 14 15 15 15 15
11 7 6 5 7 7 9 10 9 9 9 12 17 17 16 14 15 16 17 19 20 20 20 18 18 18 19
13 10 9 10 13 13 15 16 15 14 14 14 10 11 13 17 19 20 20 22 23 24 23 23 21 21 20
19 17 14 16 18 23 25 23 23 21 19 20 19 19 18 18 19 24 25 26 25 25 25 26 26 25 25
25 24 23 21 24 26 30 32 32 31 26 26 27 27 24 26 26 27 28 32 32 30 30 30 31 30 29
30 29 28 28 30 32 33 37 39 39 35 30 28 26 28 31 30 31 32 33 31 33 33 34 35 35 35
34 32 31 34 36 40 43 41 41 42 41 39 35 29 32 32 31 34 34 35 35 34 37 38 36 38 37
40 36 32 35 41 46 48 44 42 42 41 41 39 34 34 28 30 37 39 42 42 36 37 40 39 43 44
46 41 35 37 42 46 43 39 40 41 40 39 39 36 29 30 35 36 37 28 30 33 36 38 37 37 35
52 45 38 41 43 42 38 35 35 34 34 34 34 32 28 31 32 34 27 25 26 23 24 29 26 29 4
53 43 40 45 44 39 35 30 26 26 26 27 29 28 27 30 33 34 32 33 38 29 24 18 8 9 28
51 43 43 43 40 37 32 27 23 22 23 26 30 31 31 30 30 30 27 29 29 29 27 22 24 26 18
Wind_Direction_850mb
156 146 140 136 132 133 137 110 58 48 47 50 57 83 94 88 90 82 52 40 353 278 294 308 315 321 327
183 183 186 191 196 198 222 257 292 318 323 358 28 33 16 21 18 22 20 5 339 319 301 294 297 304 311
201 205 213 218 224 238 244 261 267 268 270 267 274 288 320 328 327 329 331 329 328 317 311 307 299 296 298
190 196 201 220 277 292 269 267 264 265 265 263 264 265 268 278 289 291 295 299 305 310 312 315 321 312 309
185 198 217 261 301 314 333 346 300 279 275 267 259 261 262 267 276 285 290 292 293 297 300 302 304 304 309
200 207 227 269 291 304 294 296 304 313 314 289 266 263 258 264 275 281 285 288 289 290 292 296 300 302 304
229 240 272 298 300 292 287 284 286 289 294 295 297 297 311 275 298 291 293 290 290 290 293 298 298 303 305
247 257 272 286 298 292 284 280 277 277 278 280 277 280 290 298 304 300 299 293 294 292 298 301 304 303 305
257 259 268 280 290 292 290 275 269 270 272 268 272 276 278 277 286 293 291 296 294 297 296 298 298 300 297
257 259 268 270 286 284 288 275 266 263 264 262 267 271 286 278 280 284 288 291 291 293 296 293 295 291 290
252 255 265 270 281 282 285 273 261 258 257 254 255 250 256 267 281 286 293 289 285 286 286 286 291 290 291
249 249 263 275 283 285 286 272 261 257 255 252 250 249 253 271 278 284 285 283 281 279 284 289 288 292 287
245 247 256 277 284 287 283 272 262 256 253 250 247 249 267 272 272 282 287 293 298 288 282 284 282 285 294
242 247 260 278 282 283 277 270 261 255 251 247 243 243 250 268 277 282 277 279 281 280 277 291 307 324 352
241 245 261 276 274 274 269 263 255 250 246 240 237 239 254 261 271 275 273 271 276 280 281 284 288 294 304
238 249 263 270 271 266 256 251 242 238 237 236 236 242 254 270 269 279 277 284 289 289 293 279 275 283 279